Home   Weather   Tabriz   Past weeks

Flag for Iran Past Weather in Tabriz, Iran — Yesterday and Last 2 Weeks

52 °F

Scattered showers. Passing clouds.

Feels Like: 49 °F
Forecast: 42 / 55 °F
Wind: 7 mph from Southeast

Location: Tabriz Airport

Current Time: Oct 24, 2016 at 10:08:24 PM

Latest Report: Oct 24, 2016 at 9:30 PM

Visibility: N/A

Pressure: 30.21 "Hg (25.57 "Hg at 1388m altitude)

Humidity: 54%

Dew Point: 36 °F

Location of TabrizLocation

Past Weather in Tabriz — Graph


Tabriz Temperature Yesterday

Maximum temperature yesterday: 63 °F (at 3:30 PM)
Minimum temperature yesterday: 36 °F (at 4:00 AM)
Average temperature yesterday: 49 °F

High & Low Weather Summary for the Past Weeks

High77 °F (Oct 10, 3:30 PM)93% (Oct 19, 11:30 PM)30.27 "Hg (Oct 19, 11:30 PM)
Low36 °F (Oct 20, 3:00 AM)11% (Oct 10, 4:00 PM)29.95 "Hg (Oct 13, 5:00 PM)
Average55 °F47%30.14 "Hg
* Reported Oct 9 8:30 PM — Oct 24 9:00 PM, Tabriz, Weather by CustomWeather, © 2016

Note: Actual official high and low records may vary slightly from our data, if they occured in-between our weather recording intervals... More about our weather records


Tabriz Weather History for the Previous 24 Hours

Scroll right to see more
Time TempWeatherWind HumidityBarometerVisibility
9:00 PM
Mon, Oct 24
54 °FScattered showers. Passing clouds.7 mph54%30.21 "HgN/A
8:30 PM54 °FScattered showers. Passing clouds.9 mph51%30.21 "HgN/A
8:00 PM54 °FScattered showers. Passing clouds.12 mph51%30.18 "HgN/A
7:30 PM55 °FScattered showers. Passing clouds.9 mph51%30.18 "HgN/A
7:00 PM57 °FPassing clouds.12 mph44%30.15 "HgN/A
6:30 PM59 °FPassing clouds.12 mph45%30.15 "HgN/A
6:00 PM59 °FBroken clouds.9 mph42%30.12 "Hg5 mi
5:30 PM61 °FPartly sunny.9 mph39%30.12 "Hg5 mi
5:00 PM63 °FPartly sunny.No wind37%30.12 "Hg4 mi
4:30 PM63 °FScattered clouds.2 mph39%30.12 "Hg4 mi
4:00 PM63 °FScattered clouds.2 mph39%30.12 "Hg4 mi
3:30 PM64 °FScattered clouds.5 mph37%30.12 "Hg4 mi
3:00 PM64 °FScattered clouds.5 mph37%30.12 "Hg4 mi
2:30 PM63 °FScattered clouds.7 mph37%30.15 "Hg4 mi
2:00 PM63 °FScattered clouds.2 mph37%30.15 "Hg4 mi
1:30 PM63 °FPassing clouds.7 mph37%30.15 "Hg5 mi
1:00 PM61 °FPassing clouds.9 mph36%30.18 "Hg5 mi
12:30 PM63 °FPassing clouds.9 mph37%30.18 "Hg5 mi
12:00 PM61 °FPassing clouds.9 mph39%30.18 "HgN/A
11:30 AM59 °FPassing clouds.9 mph42%30.18 "HgN/A
11:00 AM57 °FPassing clouds.7 mph44%30.21 "HgN/A
10:30 AM55 °FPassing clouds.9 mph51%30.21 "HgN/A
10:00 AM55 °FSunny.9 mph51%30.21 "Hg10 mi
9:30 AM52 °FSunny.7 mph54%30.21 "Hg10 mi
9:00 AM50 °FSunny.7 mph58%30.21 "Hg10 mi
8:30 AM46 °FSunny.7 mph62%30.21 "Hg10 mi
8:00 AM45 °FSunny.7 mph66%30.21 "Hg10 mi
7:30 AM41 °FSunny.5 mph70%30.21 "Hg10 mi
7:00 AM39 °FClear.5 mph75%30.21 "Hg10 mi
6:30 AM39 °FClear.5 mph75%30.21 "Hg10 mi
6:00 AM39 °FClear.5 mph75%30.18 "Hg10 mi
5:30 AM37 °FClear.5 mph75%30.18 "Hg10 mi
5:00 AM39 °FClear.5 mph70%30.18 "Hg10 mi
4:30 AM41 °FClear.5 mph70%30.18 "Hg10 mi
4:00 AM41 °FClear.5 mph70%30.18 "Hg10 mi
3:30 AM41 °FClear.5 mph70%30.18 "Hg10 mi
3:00 AM41 °FClear.5 mph66%30.18 "Hg10 mi
2:30 AM43 °FClear.5 mph66%30.18 "Hg10 mi
2:00 AM41 °FClear.5 mph66%30.18 "Hg10 mi
1:30 AM45 °FClear.7 mph61%30.18 "Hg10 mi
1:00 AM43 °FClear.2 mph61%30.18 "Hg10 mi
12:30 AM46 °FClear.7 mph57%30.18 "Hg10 mi
12:00 AM46 °FClear.7 mph57%30.18 "Hg10 mi
11:30 PM
Sun, Oct 23
46 °FClear.5 mph57%30.21 "Hg10 mi
11:00 PM46 °FClear.9 mph57%30.21 "Hg10 mi
10:30 PM46 °FClear.2 mph62%30.21 "Hg10 mi
10:00 PM45 °FClear.5 mph61%30.18 "Hg10 mi
Weather by CustomWeather, © 2016

See weather overviewHow to use our weather pages